{"data":{"norad_id":39491,"epoch":"2026-05-25T03:24:39.981024Z","epoch_age_seconds":61949,"freshness":"FRESH","line1":"1 39491U 13078B   26145.14212941  .00002754  00000+0  19339-3 0  9992","line2":"2 39491  82.4106 273.2143 0014433 283.7477  76.2143 15.04696771675348","mean_motion":15.04696771,"eccentricity":0.0014433,"inclination_deg":82.4106,"raan_deg":273.2143,"arg_perigee_deg":283.7477,"mean_anomaly_deg":76.2143,"bstar":0.00019339,"rev_number":67534,"period_min":95.700344930161,"perigee_km":542.43373605908,"apogee_km":562.43952990805,"semimajor_km":6930.5736329836,"source":"CELESTRAK","updated_at":"2026-05-25T13:38:25.286969Z"}}